Year,Month,Day,Hour,Minute,Value (Times are PST for temperature in C)
2016,06,04,00,00,15.30
2016,06,04,00,01,15.30
2016,06,04,00,02,15.30
2016,06,04,00,03,15.30
2016,06,04,00,04,15.30
2016,06,04,00,05,15.30
2016,06,04,00,06,15.30
2016,06,04,00,07,15.30
2016,06,04,00,08,15.20
2016,06,04,00,09,15.20
2016,06,04,00,10,15.20
2016,06,04,00,11,15.10
2016,06,04,00,12,15.10
2016,06,04,00,13,15.10
2016,06,04,00,14,15.10
2016,06,04,00,15,15.10
2016,06,04,00,16,15.10
2016,06,04,00,17,15.10
2016,06,04,00,18,15.00
2016,06,04,00,19,15.00
2016,06,04,00,20,15.00
2016,06,04,00,21,15.00
2016,06,04,00,22,15.00
2016,06,04,00,23,15.00
2016,06,04,00,24,15.00
2016,06,04,00,25,15.00
2016,06,04,00,26,15.00
2016,06,04,00,27,14.90
2016,06,04,00,28,14.90
2016,06,04,00,29,14.90
2016,06,04,00,30,14.80
2016,06,04,00,31,14.80
2016,06,04,00,32,14.80
2016,06,04,00,33,14.70
2016,06,04,00,34,14.70
2016,06,04,00,35,14.70
2016,06,04,00,36,14.70
2016,06,04,00,37,14.60
2016,06,04,00,38,14.60
2016,06,04,00,39,14.60
2016,06,04,00,40,14.60
2016,06,04,00,41,14.60
2016,06,04,00,42,14.50
2016,06,04,00,43,14.50
2016,06,04,00,44,14.50
2016,06,04,00,45,14.50
2016,06,04,00,46,14.50
2016,06,04,00,47,14.40
2016,06,04,00,48,14.40
2016,06,04,00,49,14.40
2016,06,04,00,50,14.40
2016,06,04,00,51,14.40
2016,06,04,00,52,14.40
2016,06,04,00,53,14.40
2016,06,04,00,54,14.40
2016,06,04,00,55,14.40
2016,06,04,00,56,14.40
2016,06,04,00,57,14.30
2016,06,04,00,58,14.30
2016,06,04,00,59,14.30
2016,06,04,01,00,14.30
2016,06,04,01,01,14.30
2016,06,04,01,02,14.20
2016,06,04,01,03,14.20
2016,06,04,01,04,14.20
2016,06,04,01,05,14.20
2016,06,04,01,06,14.20
2016,06,04,01,07,14.20
2016,06,04,01,08,14.20
2016,06,04,01,09,14.20
2016,06,04,01,10,14.20
2016,06,04,01,11,14.20
2016,06,04,01,12,14.20
2016,06,04,01,13,14.20
2016,06,04,01,14,14.20
2016,06,04,01,15,14.20
2016,06,04,01,16,14.20
2016,06,04,01,17,14.20
2016,06,04,01,18,14.20
2016,06,04,01,19,14.20
2016,06,04,01,20,14.20
2016,06,04,01,21,14.20
2016,06,04,01,22,14.20
2016,06,04,01,23,14.20
2016,06,04,01,24,14.20
2016,06,04,01,25,14.20
2016,06,04,01,26,14.20
2016,06,04,01,27,14.20
2016,06,04,01,28,14.20
2016,06,04,01,29,14.20
2016,06,04,01,30,14.20
2016,06,04,01,31,14.20
2016,06,04,01,32,14.20
2016,06,04,01,33,14.20
2016,06,04,01,34,14.20
2016,06,04,01,35,14.20
2016,06,04,01,36,14.20
2016,06,04,01,37,14.10
2016,06,04,01,38,14.10
2016,06,04,01,39,14.10
2016,06,04,01,40,14.10
2016,06,04,01,41,14.10
2016,06,04,01,42,14.00
2016,06,04,01,43,14.00
2016,06,04,01,44,14.00
2016,06,04,01,45,14.00
2016,06,04,01,46,14.00
2016,06,04,01,47,14.00
2016,06,04,01,48,13.90
2016,06,04,01,49,13.90
2016,06,04,01,50,13.90
2016,06,04,01,51,13.90
2016,06,04,01,52,13.90
2016,06,04,01,53,13.90
2016,06,04,01,54,13.90
2016,06,04,01,55,13.90
2016,06,04,01,56,13.90
2016,06,04,01,57,13.90
2016,06,04,01,58,13.90
2016,06,04,01,59,13.90
2016,06,04,02,00,13.90
2016,06,04,02,01,13.90
2016,06,04,02,02,13.90
2016,06,04,02,03,13.90
2016,06,04,02,04,13.90
2016,06,04,02,05,13.90
2016,06,04,02,06,13.90
2016,06,04,02,07,13.90
2016,06,04,02,08,13.90
2016,06,04,02,09,13.90
2016,06,04,02,10,13.90
2016,06,04,02,11,14.00
2016,06,04,02,12,14.00
2016,06,04,02,13,14.00
2016,06,04,02,14,14.10
2016,06,04,02,15,14.10
2016,06,04,02,16,14.10
2016,06,04,02,17,14.10
2016,06,04,02,18,14.10
2016,06,04,02,19,14.10
2016,06,04,02,20,14.10
2016,06,04,02,21,14.10
2016,06,04,02,22,14.10
2016,06,04,02,23,14.10
2016,06,04,02,24,14.10
2016,06,04,02,25,14.20
2016,06,04,02,26,14.20
2016,06,04,02,27,14.20
2016,06,04,02,28,14.20
2016,06,04,02,29,14.20
2016,06,04,02,30,14.20
2016,06,04,02,31,14.20
2016,06,04,02,32,14.20
2016,06,04,02,33,14.20
2016,06,04,02,34,14.20
2016,06,04,02,35,14.20
2016,06,04,02,36,14.20
2016,06,04,02,37,14.20
2016,06,04,02,38,14.20
2016,06,04,02,39,14.20
2016,06,04,02,40,14.20
2016,06,04,02,41,14.20
2016,06,04,02,42,14.20
2016,06,04,02,43,14.30
2016,06,04,02,44,14.30
2016,06,04,02,45,14.30
2016,06,04,02,46,14.30
2016,06,04,02,47,14.30
2016,06,04,02,48,14.30
2016,06,04,02,49,14.30
2016,06,04,02,50,14.30
2016,06,04,02,51,14.30
2016,06,04,02,52,14.30
2016,06,04,02,53,14.30
2016,06,04,02,54,14.30
2016,06,04,02,55,14.30
2016,06,04,02,56,14.30
2016,06,04,02,57,14.20
2016,06,04,02,58,14.20
2016,06,04,02,59,14.20
2016,06,04,03,00,14.20
2016,06,04,03,01,14.20
2016,06,04,03,02,14.20
2016,06,04,03,03,14.20
2016,06,04,03,04,14.20
2016,06,04,03,05,14.20
2016,06,04,03,06,14.10
2016,06,04,03,07,14.10
2016,06,04,03,08,14.10
2016,06,04,03,09,14.10
2016,06,04,03,10,14.10
2016,06,04,03,11,14.10
2016,06,04,03,12,14.10
2016,06,04,03,13,14.00
2016,06,04,03,14,14.00
2016,06,04,03,15,14.00
2016,06,04,03,16,14.00
2016,06,04,03,17,13.90
2016,06,04,03,18,13.90
2016,06,04,03,19,13.90
2016,06,04,03,20,13.90
2016,06,04,03,21,13.90
2016,06,04,03,22,13.90
2016,06,04,03,23,13.90
2016,06,04,03,24,13.90
2016,06,04,03,25,13.90
2016,06,04,03,26,13.90
2016,06,04,03,27,13.90
2016,06,04,03,28,13.80
2016,06,04,03,29,13.80
2016,06,04,03,30,13.80
2016,06,04,03,31,13.90
2016,06,04,03,32,13.80
2016,06,04,03,33,13.80
2016,06,04,03,34,13.80
2016,06,04,03,35,13.80
2016,06,04,03,36,13.80
2016,06,04,03,37,13.90
2016,06,04,03,38,13.80
2016,06,04,03,39,13.80
2016,06,04,03,40,13.80
2016,06,04,03,41,13.80
2016,06,04,03,42,13.80
2016,06,04,03,43,13.80
2016,06,04,03,44,13.80
2016,06,04,03,45,13.80
2016,06,04,03,46,13.70
2016,06,04,03,47,13.70
2016,06,04,03,48,13.70
2016,06,04,03,49,13.70
2016,06,04,03,50,13.70
2016,06,04,03,51,13.70
2016,06,04,03,52,13.70
2016,06,04,03,53,13.70
2016,06,04,03,54,13.70
2016,06,04,03,55,13.70
2016,06,04,03,56,13.70
2016,06,04,03,57,13.60
2016,06,04,03,58,13.60
2016,06,04,03,59,13.60
2016,06,04,04,00,13.60
2016,06,04,04,01,13.60
2016,06,04,04,02,13.60
2016,06,04,04,03,13.60
2016,06,04,04,04,13.60
2016,06,04,04,05,13.60
2016,06,04,04,06,13.60
2016,06,04,04,07,13.60
2016,06,04,04,08,13.60
2016,06,04,04,09,13.60
2016,06,04,04,10,13.60
2016,06,04,04,11,13.50
2016,06,04,04,12,13.50
2016,06,04,04,13,13.50
2016,06,04,04,14,13.50
2016,06,04,04,15,13.50
2016,06,04,04,16,13.50
2016,06,04,04,17,13.50
2016,06,04,04,18,13.50
2016,06,04,04,19,13.50
2016,06,04,04,20,13.40
2016,06,04,04,21,13.50
2016,06,04,04,22,13.50
2016,06,04,04,23,13.50
2016,06,04,04,24,13.50
2016,06,04,04,25,13.50
2016,06,04,04,26,13.50
2016,06,04,04,27,13.50
2016,06,04,04,28,13.50
2016,06,04,04,29,13.50
2016,06,04,04,30,13.50
2016,06,04,04,31,13.50
2016,06,04,04,32,13.50
2016,06,04,04,33,13.50
2016,06,04,04,34,13.60
2016,06,04,04,35,13.60
2016,06,04,04,36,13.60
2016,06,04,04,37,13.60
2016,06,04,04,38,13.60
2016,06,04,04,39,13.60
2016,06,04,04,40,13.60
2016,06,04,04,41,13.60
2016,06,04,04,42,13.50
2016,06,04,04,43,13.50
2016,06,04,04,44,13.50
2016,06,04,04,45,13.50
2016,06,04,04,46,13.50
2016,06,04,04,47,13.50
2016,06,04,04,48,13.50
2016,06,04,04,49,13.50
2016,06,04,04,50,13.50
2016,06,04,04,51,13.50
2016,06,04,04,52,13.50
2016,06,04,04,53,13.50
2016,06,04,04,54,13.60
2016,06,04,04,55,13.50
2016,06,04,04,56,13.50
2016,06,04,04,57,13.50
2016,06,04,04,58,13.50
2016,06,04,04,59,13.50
2016,06,04,05,00,13.50
2016,06,04,05,01,13.50
2016,06,04,05,02,13.50
2016,06,04,05,03,13.50
2016,06,04,05,04,13.40
2016,06,04,05,05,13.40
2016,06,04,05,06,13.40
2016,06,04,05,07,13.40
2016,06,04,05,08,13.40
2016,06,04,05,09,13.40
2016,06,04,05,10,13.40
2016,06,04,05,11,13.40
2016,06,04,05,12,13.40
2016,06,04,05,13,13.30
2016,06,04,05,14,13.30
2016,06,04,05,15,13.30
2016,06,04,05,16,13.30
2016,06,04,05,17,13.30
2016,06,04,05,18,13.30
2016,06,04,05,19,13.30
2016,06,04,05,20,13.30
2016,06,04,05,21,13.30
2016,06,04,05,22,13.30
2016,06,04,05,23,13.30
2016,06,04,05,24,13.30
2016,06,04,05,25,13.30
2016,06,04,05,26,13.30
2016,06,04,05,27,13.30
2016,06,04,05,28,13.30
2016,06,04,05,29,13.30
2016,06,04,05,30,13.30
2016,06,04,05,31,13.30
2016,06,04,05,32,13.40
2016,06,04,05,33,13.40
2016,06,04,05,34,13.40
2016,06,04,05,35,13.40
2016,06,04,05,36,13.40
2016,06,04,05,37,13.40
2016,06,04,05,38,13.40
2016,06,04,05,39,13.30
2016,06,04,05,40,13.30
2016,06,04,05,41,13.30
2016,06,04,05,42,13.30
2016,06,04,05,43,13.30
2016,06,04,05,44,13.40
2016,06,04,05,45,13.40
2016,06,04,05,46,13.40
2016,06,04,05,47,13.40
2016,06,04,05,48,13.40
2016,06,04,05,49,13.40
2016,06,04,05,50,13.40
2016,06,04,05,51,13.40
2016,06,04,05,52,13.40
2016,06,04,05,53,13.40
2016,06,04,05,54,13.40
2016,06,04,05,55,13.40
2016,06,04,05,56,13.40
2016,06,04,05,57,13.40
2016,06,04,05,58,13.40
2016,06,04,05,59,13.40
2016,06,04,06,00,13.40
2016,06,04,06,01,13.40
2016,06,04,06,02,13.40
2016,06,04,06,03,13.40
2016,06,04,06,04,13.40
2016,06,04,06,05,13.40
2016,06,04,06,06,13.40
2016,06,04,06,07,13.40
2016,06,04,06,08,13.40
2016,06,04,06,09,13.40
2016,06,04,06,10,13.40
2016,06,04,06,11,13.40
2016,06,04,06,12,13.40
2016,06,04,06,13,13.40
2016,06,04,06,14,13.40
2016,06,04,06,15,13.40
2016,06,04,06,16,13.40
2016,06,04,06,17,13.40
2016,06,04,06,18,13.40
2016,06,04,06,19,13.40
2016,06,04,06,20,13.40
2016,06,04,06,21,13.40
2016,06,04,06,22,13.40
2016,06,04,06,23,13.50
2016,06,04,06,24,13.50
2016,06,04,06,25,13.50
2016,06,04,06,26,13.50
2016,06,04,06,27,13.60
2016,06,04,06,28,13.60
2016,06,04,06,29,13.60
2016,06,04,06,30,13.60
2016,06,04,06,31,13.70
2016,06,04,06,32,13.70
2016,06,04,06,33,13.70
2016,06,04,06,34,13.80
2016,06,04,06,35,13.80
2016,06,04,06,36,13.80
2016,06,04,06,37,13.80
2016,06,04,06,38,13.80
2016,06,04,06,39,13.90
2016,06,04,06,40,13.90
2016,06,04,06,41,13.90
2016,06,04,06,42,14.00
2016,06,04,06,43,14.00
2016,06,04,06,44,14.00
2016,06,04,06,45,14.10
2016,06,04,06,46,14.10
2016,06,04,06,47,14.10
2016,06,04,06,48,14.10
2016,06,04,06,49,14.20
2016,06,04,06,50,14.20
2016,06,04,06,51,14.20
2016,06,04,06,52,14.20
2016,06,04,06,53,14.20
2016,06,04,06,54,14.30
2016,06,04,06,55,14.30
2016,06,04,06,56,14.40
2016,06,04,06,57,14.50
2016,06,04,06,58,14.50
2016,06,04,06,59,14.60
2016,06,04,07,00,14.60
2016,06,04,07,01,14.70
2016,06,04,07,02,14.80
2016,06,04,07,03,14.80
2016,06,04,07,04,14.90
2016,06,04,07,05,15.00
2016,06,04,07,06,15.00
2016,06,04,07,07,15.10
2016,06,04,07,08,15.10
2016,06,04,07,09,15.20
2016,06,04,07,10,15.30
2016,06,04,07,11,15.30
2016,06,04,07,12,15.40
2016,06,04,07,13,15.40
2016,06,04,07,14,15.50
2016,06,04,07,15,15.50
2016,06,04,07,16,15.60
2016,06,04,07,17,15.60
2016,06,04,07,18,15.70
2016,06,04,07,19,15.70
2016,06,04,07,20,15.70
2016,06,04,07,21,15.80
2016,06,04,07,22,15.80
2016,06,04,07,23,15.80
2016,06,04,07,24,15.90
2016,06,04,07,25,15.90
2016,06,04,07,26,15.90
2016,06,04,07,27,16.00
2016,06,04,07,28,16.00
2016,06,04,07,29,16.10
2016,06,04,07,30,16.10
2016,06,04,07,31,16.20
2016,06,04,07,32,16.20
2016,06,04,07,33,16.20
2016,06,04,07,34,16.30
2016,06,04,07,35,16.30
2016,06,04,07,36,16.30
2016,06,04,07,37,16.40
2016,06,04,07,38,16.40
2016,06,04,07,39,16.50
2016,06,04,07,40,16.50
2016,06,04,07,41,16.60
2016,06,04,07,42,16.70
2016,06,04,07,43,16.70
2016,06,04,07,44,16.80
2016,06,04,07,45,16.80
2016,06,04,07,46,16.80
2016,06,04,07,47,16.80
2016,06,04,07,48,16.80
2016,06,04,07,49,16.80
2016,06,04,07,50,16.90
2016,06,04,07,51,16.90
2016,06,04,07,52,17.00
2016,06,04,07,53,17.00
2016,06,04,07,54,17.10
2016,06,04,07,55,17.10
2016,06,04,07,56,17.10
2016,06,04,07,57,17.10
2016,06,04,07,58,17.10
2016,06,04,07,59,17.10
2016,06,04,08,00,17.10
2016,06,04,08,01,17.20
2016,06,04,08,02,17.20
2016,06,04,08,03,17.20
2016,06,04,08,04,17.20
2016,06,04,08,05,17.20
2016,06,04,08,06,17.30
2016,06,04,08,07,17.30
2016,06,04,08,08,17.30
2016,06,04,08,09,17.30
2016,06,04,08,10,17.30
2016,06,04,08,11,17.30
2016,06,04,08,12,17.30
2016,06,04,08,13,17.30
2016,06,04,08,14,17.20
2016,06,04,08,15,17.20
2016,06,04,08,16,17.30
2016,06,04,08,17,17.30
2016,06,04,08,18,17.30
2016,06,04,08,19,17.30
2016,06,04,08,20,17.40
2016,06,04,08,21,17.40
2016,06,04,08,22,17.40
2016,06,04,08,23,17.50
2016,06,04,08,24,17.50
2016,06,04,08,25,17.50
2016,06,04,08,26,17.60
2016,06,04,08,27,17.60
2016,06,04,08,28,17.60
2016,06,04,08,29,17.60
2016,06,04,08,30,17.70
2016,06,04,08,31,17.70
2016,06,04,08,32,17.70
2016,06,04,08,33,17.70
2016,06,04,08,34,17.70
2016,06,04,08,35,17.70
2016,06,04,08,36,17.70
2016,06,04,08,37,17.70
2016,06,04,08,38,17.80
2016,06,04,08,39,17.80
2016,06,04,08,40,17.70
2016,06,04,08,41,17.70
2016,06,04,08,42,17.70
2016,06,04,08,43,17.70
2016,06,04,08,44,17.60
2016,06,04,08,45,17.60
2016,06,04,08,46,17.60
2016,06,04,08,47,17.60
2016,06,04,08,48,17.70
2016,06,04,08,49,17.70
2016,06,04,08,50,17.70
2016,06,04,08,51,17.70
2016,06,04,08,52,17.70
2016,06,04,08,53,17.80
2016,06,04,08,54,17.80
2016,06,04,08,55,17.80
2016,06,04,08,56,17.80
2016,06,04,08,57,17.90
2016,06,04,08,58,17.90
2016,06,04,08,59,17.90
2016,06,04,09,00,18.00
2016,06,04,09,01,18.00
2016,06,04,09,02,18.10
2016,06,04,09,03,18.10
2016,06,04,09,04,18.10
2016,06,04,09,05,18.10
2016,06,04,09,06,18.10
2016,06,04,09,07,18.00
2016,06,04,09,08,18.00
2016,06,04,09,09,18.00
2016,06,04,09,10,18.10
2016,06,04,09,11,18.10
2016,06,04,09,12,18.10
2016,06,04,09,13,18.20
2016,06,04,09,14,18.20
2016,06,04,09,15,18.20
2016,06,04,09,16,18.30
2016,06,04,09,17,18.30
2016,06,04,09,18,18.30
2016,06,04,09,19,18.30
2016,06,04,09,20,18.40
2016,06,04,09,21,18.40
2016,06,04,09,22,18.40
2016,06,04,09,23,18.40
2016,06,04,09,24,18.40
2016,06,04,09,25,18.50
2016,06,04,09,26,18.50
2016,06,04,09,27,18.50
2016,06,04,09,28,18.50
2016,06,04,09,29,18.50
2016,06,04,09,30,18.50
2016,06,04,09,31,18.60
2016,06,04,09,32,18.60
2016,06,04,09,33,18.70
2016,06,04,09,34,18.70
2016,06,04,09,35,18.70
2016,06,04,09,36,18.80
2016,06,04,09,37,18.80
2016,06,04,09,38,18.90
2016,06,04,09,39,19.00
2016,06,04,09,40,19.10
2016,06,04,09,41,19.10
2016,06,04,09,42,19.00
2016,06,04,09,43,19.00
2016,06,04,09,44,19.10
2016,06,04,09,45,19.10
2016,06,04,09,46,19.10
2016,06,04,09,47,19.10
2016,06,04,09,48,19.00
2016,06,04,09,49,19.00
2016,06,04,09,50,19.10
2016,06,04,09,51,19.10
2016,06,04,09,52,19.20
2016,06,04,09,53,19.20
2016,06,04,09,54,19.20
2016,06,04,09,55,19.20
2016,06,04,09,56,19.30
2016,06,04,09,57,19.30
2016,06,04,09,58,19.30
2016,06,04,09,59,19.40
2016,06,04,10,00,19.40
2016,06,04,10,01,19.40
2016,06,04,10,02,19.40
2016,06,04,10,03,19.50
2016,06,04,10,04,19.60
2016,06,04,10,05,19.60
2016,06,04,10,06,19.70
2016,06,04,10,07,19.70
2016,06,04,10,08,19.70
2016,06,04,10,09,19.80
2016,06,04,10,10,19.80
2016,06,04,10,11,19.80
2016,06,04,10,12,19.80
2016,06,04,10,13,19.80
2016,06,04,10,14,19.80
2016,06,04,10,15,19.80
2016,06,04,10,16,19.90
2016,06,04,10,17,19.90
2016,06,04,10,18,20.00
2016,06,04,10,19,20.00
2016,06,04,10,20,20.00
2016,06,04,10,21,20.00
2016,06,04,10,22,20.00
2016,06,04,10,23,20.10
2016,06,04,10,24,20.20
2016,06,04,10,25,20.20
2016,06,04,10,26,20.30
2016,06,04,10,27,20.30
2016,06,04,10,28,20.30
2016,06,04,10,29,20.30
2016,06,04,10,30,20.30
2016,06,04,10,31,20.30
2016,06,04,10,32,20.30
2016,06,04,10,33,20.30
2016,06,04,10,34,20.30
2016,06,04,10,35,20.30
2016,06,04,10,36,20.30
2016,06,04,10,37,20.30
2016,06,04,10,38,20.30
2016,06,04,10,39,20.30
2016,06,04,10,40,20.40
2016,06,04,10,41,20.40
2016,06,04,10,42,20.50
2016,06,04,10,43,20.50
2016,06,04,10,44,20.60
2016,06,04,10,45,20.50
2016,06,04,10,46,20.50
2016,06,04,10,47,20.40
2016,06,04,10,48,20.40
2016,06,04,10,49,20.40
2016,06,04,10,50,20.50
2016,06,04,10,51,20.50
2016,06,04,10,52,20.60
2016,06,04,10,53,20.60
2016,06,04,10,54,20.50
2016,06,04,10,55,20.60
2016,06,04,10,56,20.60
2016,06,04,10,57,20.50
2016,06,04,10,58,20.50
2016,06,04,10,59,20.50
2016,06,04,11,00,20.50
2016,06,04,11,01,20.60
2016,06,04,11,02,20.60
2016,06,04,11,03,20.60
2016,06,04,11,04,20.50
2016,06,04,11,05,20.50
2016,06,04,11,06,20.50
2016,06,04,11,07,20.50
2016,06,04,11,08,20.60
2016,06,04,11,09,20.60
2016,06,04,11,10,20.60
2016,06,04,11,11,20.60
2016,06,04,11,12,20.70
2016,06,04,11,13,20.70
2016,06,04,11,14,20.70
2016,06,04,11,15,20.70
2016,06,04,11,16,20.70
2016,06,04,11,17,20.70
2016,06,04,11,18,20.70
2016,06,04,11,19,20.70
2016,06,04,11,20,20.80
2016,06,04,11,21,20.80
2016,06,04,11,22,20.90
2016,06,04,11,23,20.90
2016,06,04,11,24,20.90
2016,06,04,11,25,21.00
2016,06,04,11,26,21.10
2016,06,04,11,27,21.20
2016,06,04,11,28,21.20
2016,06,04,11,29,21.20
2016,06,04,11,30,21.20
2016,06,04,11,31,21.30
2016,06,04,11,32,21.30
2016,06,04,11,33,21.40
2016,06,04,11,34,21.40
2016,06,04,11,35,21.40
2016,06,04,11,36,21.50
2016,06,04,11,37,21.50
2016,06,04,11,38,21.50
2016,06,04,11,39,21.50
2016,06,04,11,40,21.40
2016,06,04,11,41,21.40
2016,06,04,11,42,21.40
2016,06,04,11,43,21.40
2016,06,04,11,44,21.40
2016,06,04,11,45,21.30
2016,06,04,11,46,21.30
2016,06,04,11,47,21.30
2016,06,04,11,48,21.30
2016,06,04,11,49,21.30
2016,06,04,11,50,21.30
2016,06,04,11,51,21.30
2016,06,04,11,52,21.40
2016,06,04,11,53,21.40
2016,06,04,11,54,21.40
2016,06,04,11,55,21.50
2016,06,04,11,56,21.50
2016,06,04,11,57,21.60
2016,06,04,11,58,21.60
2016,06,04,11,59,21.70
2016,06,04,12,00,21.70
2016,06,04,12,01,21.60
2016,06,04,12,02,21.60
2016,06,04,12,03,21.50
2016,06,04,12,04,21.50
2016,06,04,12,05,21.50
2016,06,04,12,06,21.60
2016,06,04,12,07,21.60
2016,06,04,12,08,21.60
2016,06,04,12,09,21.70
2016,06,04,12,10,21.80
2016,06,04,12,11,21.90
2016,06,04,12,12,22.00
2016,06,04,12,13,22.00
2016,06,04,12,14,22.10
2016,06,04,12,15,22.10
2016,06,04,12,16,22.10
2016,06,04,12,17,22.00
2016,06,04,12,18,22.00
2016,06,04,12,19,22.10
2016,06,04,12,20,22.10
2016,06,04,12,21,22.10
2016,06,04,12,22,22.20
2016,06,04,12,23,22.20
2016,06,04,12,24,22.20
2016,06,04,12,25,22.20
2016,06,04,12,26,22.20
2016,06,04,12,27,22.20
2016,06,04,12,28,22.20
2016,06,04,12,29,22.20
2016,06,04,12,30,22.20
2016,06,04,12,31,22.20
2016,06,04,12,32,22.20
2016,06,04,12,33,22.30
2016,06,04,12,34,22.30
2016,06,04,12,35,22.30
2016,06,04,12,36,22.40
2016,06,04,12,37,22.40
2016,06,04,12,38,22.40
2016,06,04,12,39,22.40
2016,06,04,12,40,22.40
2016,06,04,12,41,22.40
2016,06,04,12,42,22.50
2016,06,04,12,43,22.60
2016,06,04,12,44,22.70
2016,06,04,12,45,22.70
2016,06,04,12,46,22.80
2016,06,04,12,47,22.80
2016,06,04,12,48,22.90
2016,06,04,12,49,22.90
2016,06,04,12,50,22.90
2016,06,04,12,51,23.00
2016,06,04,12,52,23.00
2016,06,04,12,53,23.10
2016,06,04,12,54,23.10
2016,06,04,12,55,23.10
2016,06,04,12,56,23.20
2016,06,04,12,57,23.20
2016,06,04,12,58,23.20
2016,06,04,12,59,23.20
2016,06,04,13,00,23.20
2016,06,04,13,01,23.30
2016,06,04,13,02,23.30
2016,06,04,13,03,23.40
2016,06,04,13,04,23.50
2016,06,04,13,05,23.50
2016,06,04,13,06,23.60
2016,06,04,13,07,23.60
2016,06,04,13,08,23.60
2016,06,04,13,09,23.60
2016,06,04,13,10,23.70
2016,06,04,13,11,23.70
2016,06,04,13,12,23.70
2016,06,04,13,13,23.70
2016,06,04,13,14,23.60
2016,06,04,13,15,23.60
2016,06,04,13,16,23.60
2016,06,04,13,17,23.50
2016,06,04,13,18,23.50
2016,06,04,13,19,23.60
2016,06,04,13,20,23.70
2016,06,04,13,21,23.70
2016,06,04,13,22,23.70
2016,06,04,13,23,23.70
2016,06,04,13,24,23.80
2016,06,04,13,25,23.80
2016,06,04,13,26,23.70
2016,06,04,13,27,23.80
2016,06,04,13,28,23.80
2016,06,04,13,29,23.80
2016,06,04,13,30,23.80
2016,06,04,13,31,23.80
2016,06,04,13,32,23.80
2016,06,04,13,33,23.80
2016,06,04,13,34,23.80
2016,06,04,13,35,23.70
2016,06,04,13,36,23.70
2016,06,04,13,37,23.70
2016,06,04,13,38,23.70
2016,06,04,13,39,23.80
2016,06,04,13,40,23.80
2016,06,04,13,41,23.90
2016,06,04,13,42,23.90
2016,06,04,13,43,24.00
2016,06,04,13,44,24.10
2016,06,04,13,45,24.10
2016,06,04,13,46,24.20
2016,06,04,13,47,24.10
2016,06,04,13,48,24.10
2016,06,04,13,49,24.10
2016,06,04,13,50,24.10
2016,06,04,13,51,24.20
2016,06,04,13,52,24.20
2016,06,04,13,53,24.20
2016,06,04,13,54,24.20
2016,06,04,13,55,24.30
2016,06,04,13,56,24.40
2016,06,04,13,57,24.40
2016,06,04,13,58,24.50
2016,06,04,13,59,24.50
2016,06,04,14,00,24.60
2016,06,04,14,01,24.70
2016,06,04,14,02,24.70
2016,06,04,14,03,24.80
2016,06,04,14,04,24.80
2016,06,04,14,05,24.90
2016,06,04,14,06,24.90
2016,06,04,14,07,24.90
2016,06,04,14,08,25.00
2016,06,04,14,09,25.10
2016,06,04,14,10,25.10
2016,06,04,14,11,25.20
2016,06,04,14,12,25.20
2016,06,04,14,13,25.20
2016,06,04,14,14,25.20
2016,06,04,14,15,25.20
2016,06,04,14,16,25.30
2016,06,04,14,17,25.30
2016,06,04,14,18,25.30
2016,06,04,14,19,25.40
2016,06,04,14,20,25.40
2016,06,04,14,21,25.40
2016,06,04,14,22,25.40
2016,06,04,14,23,25.40
2016,06,04,14,24,25.40
2016,06,04,14,25,25.40
2016,06,04,14,26,25.40
2016,06,04,14,27,25.40
2016,06,04,14,28,25.50
2016,06,04,14,29,25.60
2016,06,04,14,30,25.60
2016,06,04,14,31,25.70
2016,06,04,14,32,25.70
2016,06,04,14,33,25.70
2016,06,04,14,34,25.70
2016,06,04,14,35,25.70
2016,06,04,14,36,25.80
2016,06,04,14,37,25.80
2016,06,04,14,38,25.80
2016,06,04,14,39,25.80
2016,06,04,14,40,25.80
2016,06,04,14,41,25.80
2016,06,04,14,42,25.80
2016,06,04,14,43,25.80
2016,06,04,14,44,25.80
2016,06,04,14,45,25.80
2016,06,04,14,46,25.80
2016,06,04,14,47,25.70
2016,06,04,14,48,25.70
2016,06,04,14,49,25.70
2016,06,04,14,50,25.70
2016,06,04,14,51,25.70
2016,06,04,14,52,25.70
2016,06,04,14,53,25.70
2016,06,04,14,54,25.80
2016,06,04,14,55,25.80
2016,06,04,14,56,25.90
2016,06,04,14,57,26.00
2016,06,04,14,58,26.00
2016,06,04,14,59,26.10
2016,06,04,15,00,26.20
2016,06,04,15,01,26.20
2016,06,04,15,02,26.20
2016,06,04,15,03,26.20
2016,06,04,15,04,26.20
2016,06,04,15,05,26.30
2016,06,04,15,06,26.30
2016,06,04,15,07,26.30
2016,06,04,15,08,26.40
2016,06,04,15,09,26.40
2016,06,04,15,10,26.50
2016,06,04,15,11,26.50
2016,06,04,15,12,26.60
2016,06,04,15,13,26.60
2016,06,04,15,14,26.60
2016,06,04,15,15,26.60
2016,06,04,15,16,26.60
2016,06,04,15,17,26.60
2016,06,04,15,18,26.60
2016,06,04,15,19,26.60
2016,06,04,15,20,26.70
2016,06,04,15,21,26.70
2016,06,04,15,22,26.80
2016,06,04,15,23,26.80
2016,06,04,15,24,26.80
2016,06,04,15,25,26.80
2016,06,04,15,26,26.80
2016,06,04,15,27,26.90
2016,06,04,15,28,26.90
2016,06,04,15,29,27.00
2016,06,04,15,30,27.10
2016,06,04,15,31,27.10
2016,06,04,15,32,27.10
2016,06,04,15,33,27.10
2016,06,04,15,34,27.10
2016,06,04,15,35,27.10
2016,06,04,15,36,27.10
2016,06,04,15,37,27.10
2016,06,04,15,38,27.10
2016,06,04,15,39,27.10
2016,06,04,15,40,27.10
2016,06,04,15,41,27.00
2016,06,04,15,42,27.10
2016,06,04,15,43,27.10
2016,06,04,15,44,27.10
2016,06,04,15,45,27.00
2016,06,04,15,46,27.00
2016,06,04,15,47,27.00
2016,06,04,15,48,27.00
2016,06,04,15,49,26.90
2016,06,04,15,50,26.90
2016,06,04,15,51,27.00
2016,06,04,15,52,27.00
2016,06,04,15,53,27.10
2016,06,04,15,54,27.10
2016,06,04,15,55,27.10
2016,06,04,15,56,27.10
2016,06,04,15,57,27.10
2016,06,04,15,58,27.10
2016,06,04,15,59,27.20
2016,06,04,16,00,27.30
2016,06,04,16,01,27.30
2016,06,04,16,02,27.30
2016,06,04,16,03,27.30
2016,06,04,16,04,27.40
2016,06,04,16,05,27.40
2016,06,04,16,06,27.50
2016,06,04,16,07,27.50
2016,06,04,16,08,27.60
2016,06,04,16,09,27.70
2016,06,04,16,10,27.70
2016,06,04,16,11,27.70
2016,06,04,16,12,27.70
2016,06,04,16,13,27.70
2016,06,04,16,14,27.80
2016,06,04,16,15,27.80
2016,06,04,16,16,27.80
2016,06,04,16,17,27.80
2016,06,04,16,18,27.80
2016,06,04,16,19,27.80
2016,06,04,16,20,27.80
2016,06,04,16,21,27.80
2016,06,04,16,22,27.70
2016,06,04,16,23,27.70
2016,06,04,16,24,27.70
2016,06,04,16,25,27.80
2016,06,04,16,26,27.80
2016,06,04,16,27,27.80
2016,06,04,16,28,27.80
2016,06,04,16,29,27.80
2016,06,04,16,30,27.70
2016,06,04,16,31,27.60
2016,06,04,16,32,27.50
2016,06,04,16,33,27.40
2016,06,04,16,34,27.30
2016,06,04,16,35,27.30
2016,06,04,16,36,27.30
2016,06,04,16,37,27.30
2016,06,04,16,38,27.30
2016,06,04,16,39,27.30
2016,06,04,16,40,27.20
2016,06,04,16,41,27.30
2016,06,04,16,42,27.30
2016,06,04,16,43,27.30
2016,06,04,16,44,27.30
2016,06,04,16,45,27.30
2016,06,04,16,46,27.30
2016,06,04,16,47,27.30
2016,06,04,16,48,27.30
2016,06,04,16,49,27.30
2016,06,04,16,50,27.30
2016,06,04,16,51,27.20
2016,06,04,16,52,27.20
2016,06,04,16,53,27.30
2016,06,04,16,54,27.30
2016,06,04,16,55,27.40
2016,06,04,16,56,27.40
2016,06,04,16,57,27.50
2016,06,04,16,58,27.60
2016,06,04,16,59,27.70
2016,06,04,17,00,27.60
2016,06,04,17,01,27.50
2016,06,04,17,02,27.40
2016,06,04,17,03,27.40
2016,06,04,17,04,27.40
2016,06,04,17,05,27.40
2016,06,04,17,06,27.50
2016,06,04,17,07,27.50
2016,06,04,17,08,27.50
2016,06,04,17,09,27.60
2016,06,04,17,10,27.60
2016,06,04,17,11,27.70
2016,06,04,17,12,27.80
2016,06,04,17,13,27.80
2016,06,04,17,14,27.90
2016,06,04,17,15,27.90
2016,06,04,17,16,27.90
2016,06,04,17,17,27.90
2016,06,04,17,18,27.90
2016,06,04,17,19,27.90